GLO1412 SBGR-SBBR

Flight info

Callsign GLO1412
Flight time N/A
Altitude 36000
Route UKBEV UZ26 ISMOB/N0460F380 UZ26 SAMGA/N0456F390 DCT VUKEP
Aircraft B38M/M-SDE1FGHILORVWXY/HB1

Departure

Time N/A
Airport São Paulo/Guarulhos–Governor André Franco Montoro International Airport (SBGR)

Arrival

Time 2026-05-03 21:11
Airport Presidente Juscelino Kubitschek International Airport (SBBR)
Time Latitude Longitude Altitude Speed Heading
2026-05-03 20:15 -21.42951 -46.93565 36064 ft 419 kts 338°
2026-05-03 20:15 -21.37332 -46.95177 36063 ft 419 kts 338°
2026-05-03 20:16 -21.31684 -46.96795 36072 ft 419 kts 338°
2026-05-03 20:16 -21.26070 -46.98403 36062 ft 420 kts 338°
2026-05-03 20:17 -21.20404 -47.00023 36064 ft 420 kts 338°
2026-05-03 20:17 -21.14755 -47.01638 36064 ft 419 kts 338°
2026-05-03 20:18 -21.09132 -47.03245 36065 ft 419 kts 338°
2026-05-03 20:18 -21.03498 -47.04854 36071 ft 421 kts 338°
2026-05-03 20:19 -20.97820 -47.06471 36071 ft 421 kts 338°
2026-05-03 20:19 -20.92179 -47.08080 36076 ft 421 kts 338°
2026-05-03 20:20 -20.86512 -47.09692 36070 ft 421 kts 338°
2026-05-03 20:20 -20.80843 -47.11307 36053 ft 422 kts 338°
2026-05-03 20:21 -20.75150 -47.12923 36063 ft 422 kts 338°
2026-05-03 20:21 -20.69505 -47.14528 36064 ft 422 kts 338°
2026-05-03 20:22 -20.63841 -47.16135 36064 ft 422 kts 338°
2026-05-03 20:22 -20.58149 -47.17751 36046 ft 423 kts 339°
2026-05-03 20:23 -20.52485 -47.19355 36056 ft 423 kts 338°
2026-05-03 20:23 -20.46798 -47.20966 36052 ft 423 kts 338°
2026-05-03 20:24 -20.41102 -47.22577 36052 ft 423 kts 339°
2026-05-03 20:24 -20.35389 -47.24194 36052 ft 423 kts 339°
2026-05-03 20:25 -20.29724 -47.25793 36047 ft 424 kts 339°
2026-05-03 20:25 -20.24031 -47.27401 36048 ft 423 kts 339°
2026-05-03 20:26 -20.18351 -47.29003 36046 ft 423 kts 339°
2026-05-03 20:26 -20.12641 -47.30613 36045 ft 423 kts 339°
2026-05-03 20:27 -20.06958 -47.32214 36043 ft 424 kts 339°
2026-05-03 20:27 -20.01247 -47.33821 36042 ft 424 kts 339°
2026-05-03 20:28 -19.95538 -47.35427 36047 ft 424 kts 339°
2026-05-03 20:28 -19.89863 -47.37022 36043 ft 424 kts 339°
2026-05-03 20:29 -19.84152 -47.38626 36042 ft 424 kts 339°
2026-05-03 20:29 -19.78441 -47.40229 36041 ft 424 kts 339°
2026-05-03 20:30 -19.72768 -47.41820 36043 ft 423 kts 339°
2026-05-03 20:30 -19.67064 -47.43419 36045 ft 425 kts 339°
2026-05-03 20:31 -19.61329 -47.45024 35884 ft 425 kts 339°
2026-05-03 20:31 -19.58489 -47.45820 35644 ft 427 kts 339°
2026-05-03 20:31 -19.55613 -47.46625 35408 ft 428 kts 339°
2026-05-03 20:31 -19.52723 -47.47432 35181 ft 428 kts 339°
2026-05-03 20:32 -19.49822 -47.48243 34958 ft 429 kts 339°
2026-05-03 20:32 -19.46955 -47.49045 34733 ft 430 kts 339°
2026-05-03 20:32 -19.44056 -47.49855 34490 ft 431 kts 339°
2026-05-03 20:32 -19.41178 -47.50658 34256 ft 432 kts 340°
2026-05-03 20:33 -19.38272 -47.51469 34059 ft 431 kts 340°
2026-05-03 20:33 -19.32494 -47.53079 34053 ft 425 kts 339°
2026-05-03 20:34 -19.26808 -47.54666 34052 ft 424 kts 339°
2026-05-03 20:34 -19.21093 -47.56258 34054 ft 424 kts 339°
2026-05-03 20:35 -19.15387 -47.57847 34050 ft 424 kts 340°
2026-05-03 20:35 -19.09703 -47.59428 34055 ft 424 kts 339°
2026-05-03 20:36 -19.03985 -47.61018 34051 ft 424 kts 339°
2026-05-03 20:36 -18.98168 -47.62309 34041 ft 428 kts 343°
2026-05-03 20:37 -18.92322 -47.63538 34037 ft 428 kts 343°
2026-05-03 20:37 -18.86505 -47.64775 34040 ft 428 kts 343°
2026-05-03 20:38 -18.80641 -47.66010 34031 ft 428 kts 343°
2026-05-03 20:38 -18.74829 -47.67241 34028 ft 430 kts 343°
2026-05-03 20:39 -18.68943 -47.68481 34028 ft 430 kts 343°
2026-05-03 20:39 -18.63093 -47.69716 34026 ft 430 kts 343°
2026-05-03 20:40 -18.57216 -47.70954 34023 ft 430 kts 343°
2026-05-03 20:40 -18.51335 -47.72193 34012 ft 433 kts 343°
2026-05-03 20:41 -18.45412 -47.73439 33835 ft 434 kts 343°
2026-05-03 20:41 -18.42439 -47.74065 33513 ft 436 kts 343°
2026-05-03 20:41 -18.39490 -47.74686 33215 ft 438 kts 343°
2026-05-03 20:41 -18.36495 -47.75315 32932 ft 439 kts 344°
2026-05-03 20:42 -18.33497 -47.75944 32657 ft 440 kts 344°
2026-05-03 20:42 -18.30481 -47.76578 32385 ft 441 kts 344°
2026-05-03 20:42 -18.27454 -47.77214 32106 ft 443 kts 344°
2026-05-03 20:42 -18.24428 -47.77849 31853 ft 444 kts 344°
2026-05-03 20:43 -18.21418 -47.78480 31590 ft 445 kts 344°
2026-05-03 20:43 -18.18370 -47.79119 31311 ft 445 kts 345°
2026-05-03 20:43 -18.15354 -47.79752 31053 ft 446 kts 345°
2026-05-03 20:43 -18.12292 -47.80394 30797 ft 447 kts 345°
2026-05-03 20:44 -18.09233 -47.81035 30529 ft 448 kts 345°
2026-05-03 20:44 -18.06173 -47.81676 30269 ft 449 kts 345°
2026-05-03 20:44 -18.03143 -47.82312 29987 ft 449 kts 345°
2026-05-03 20:44 -18.00075 -47.82953 29699 ft 449 kts 345°
2026-05-03 20:45 -17.97005 -47.83593 29410 ft 447 kts 345°
2026-05-03 20:45 -17.93952 -47.84232 29128 ft 446 kts 345°
2026-05-03 20:45 -17.90909 -47.84869 28837 ft 444 kts 345°
2026-05-03 20:45 -17.87877 -47.85503 28552 ft 443 kts 345°
2026-05-03 20:46 -17.84860 -47.86133 28280 ft 441 kts 345°
2026-05-03 20:46 -17.81884 -47.86754 28007 ft 440 kts 345°
2026-05-03 20:46 -17.78878 -47.87382 27725 ft 439 kts 346°
2026-05-03 20:46 -17.75883 -47.88008 27448 ft 437 kts 346°
2026-05-03 20:47 -17.72901 -47.88630 27176 ft 436 kts 346°
2026-05-03 20:47 -17.69960 -47.89243 26897 ft 434 kts 346°
2026-05-03 20:47 -17.66994 -47.89862 26636 ft 433 kts 346°
2026-05-03 20:47 -17.64035 -47.90478 26375 ft 432 kts 346°
2026-05-03 20:48 -17.61098 -47.91090 26111 ft 430 kts 346°
2026-05-03 20:48 -17.58176 -47.91698 26019 ft 423 kts 346°
2026-05-03 20:48 -17.55281 -47.92301 26024 ft 423 kts 346°
2026-05-03 20:48 -17.52435 -47.92895 26021 ft 422 kts 346°
2026-05-03 20:49 -17.49535 -47.93498 26017 ft 422 kts 346°
2026-05-03 20:49 -17.46643 -47.94100 26023 ft 423 kts 346°
2026-05-03 20:49 -17.43783 -47.94694 26021 ft 423 kts 346°
2026-05-03 20:49 -17.40898 -47.95294 26022 ft 422 kts 346°
2026-05-03 20:50 -17.38009 -47.95895 26026 ft 422 kts 346°
2026-05-03 20:50 -17.35150 -47.96489 26022 ft 423 kts 346°
2026-05-03 20:50 -17.32256 -47.97090 26016 ft 422 kts 346°
2026-05-03 20:50 -17.29367 -47.97690 26017 ft 421 kts 346°
2026-05-03 20:51 -17.26486 -47.98288 26006 ft 422 kts 346°
2026-05-03 20:51 -17.23638 -47.98878 26010 ft 422 kts 346°
2026-05-03 20:51 -17.20748 -47.99478 26014 ft 421 kts 346°
2026-05-03 20:51 -17.17875 -48.00074 26007 ft 421 kts 346°
2026-05-03 20:52 -17.14993 -48.00672 26016 ft 422 kts 346°
2026-05-03 20:52 -17.12131 -48.01324 25916 ft 419 kts 345°
2026-05-03 20:52 -17.09249 -48.01915 25623 ft 422 kts 348°
2026-05-03 20:52 -17.06389 -48.02433 25376 ft 420 kts 348°
2026-05-03 20:53 -17.03509 -48.03017 25118 ft 419 kts 346°
2026-05-03 20:53 -17.00665 -48.03644 24872 ft 417 kts 346°
2026-05-03 20:53 -16.97822 -48.04245 24628 ft 416 kts 347°
2026-05-03 20:53 -16.95007 -48.04810 24388 ft 415 kts 347°
2026-05-03 20:54 -16.92169 -48.05387 24150 ft 413 kts 347°
2026-05-03 20:54 -16.86562 -48.06559 23666 ft 411 kts 347°
2026-05-03 20:54 -16.83758 -48.07136 23391 ft 409 kts 347°
2026-05-03 20:55 -16.80958 -48.07711 23108 ft 408 kts 347°
2026-05-03 20:55 -16.78232 -48.08274 23020 ft 402 kts 346°
2026-05-03 20:55 -16.75505 -48.08931 23025 ft 403 kts 346°
2026-05-03 20:55 -16.72760 -48.09525 23020 ft 402 kts 347°
2026-05-03 20:56 -16.69999 -48.10105 23022 ft 402 kts 346°
2026-05-03 20:56 -16.67259 -48.10732 23022 ft 402 kts 346°
2026-05-03 20:56 -16.64554 -48.11368 23023 ft 402 kts 346°
2026-05-03 20:56 -16.61816 -48.11989 22872 ft 401 kts 346°
2026-05-03 20:57 -16.59088 -48.12595 22448 ft 399 kts 346°
2026-05-03 20:57 -16.56400 -48.13199 22039 ft 397 kts 346°
2026-05-03 20:57 -16.53698 -48.13815 21643 ft 395 kts 346°
2026-05-03 20:57 -16.51037 -48.14419 21252 ft 392 kts 347°
2026-05-03 20:58 -16.48371 -48.15019 20866 ft 390 kts 347°
2026-05-03 20:58 -16.45722 -48.15616 20483 ft 388 kts 347°
2026-05-03 20:58 -16.43084 -48.16212 20101 ft 385 kts 346°
2026-05-03 20:58 -16.42202 -48.16412 19976 ft 385 kts 347°
2026-05-03 20:59 -16.39587 -48.17003 19600 ft 382 kts 347°
2026-05-03 20:59 -16.36987 -48.17589 19241 ft 380 kts 347°
2026-05-03 20:59 -16.34407 -48.18171 18870 ft 378 kts 347°
2026-05-03 20:59 -16.31870 -48.18744 18515 ft 375 kts 347°
2026-05-03 21:00 -16.29343 -48.19313 18223 ft 367 kts 347°
2026-05-03 21:00 -16.28497 -48.19504 18150 ft 362 kts 347°
2026-05-03 21:00 -16.24522 -48.20397 17872 ft 340 kts 347°
2026-05-03 21:00 -16.22241 -48.20907 17712 ft 329 kts 347°
2026-05-03 21:01 -16.20773 -48.21236 17596 ft 322 kts 347°
2026-05-03 21:01 -16.17917 -48.21877 17306 ft 312 kts 347°
2026-05-03 21:01 -16.15794 -48.22313 17021 ft 308 kts 355°
2026-05-03 21:01 -16.14385 -48.22243 16779 ft 306 kts
2026-05-03 21:02 -16.12297 -48.21767 16016 ft 305 kts 15°
2026-05-03 21:02 -16.10260 -48.21168 15293 ft 302 kts 17°
2026-05-03 21:02 -16.08242 -48.20616 14591 ft 298 kts 15°
2026-05-03 21:02 -16.06234 -48.20122 13925 ft 293 kts 14°
2026-05-03 21:03 -16.04288 -48.19639 13071 ft 284 kts 16°
2026-05-03 21:03 -16.02376 -48.19143 12086 ft 282 kts 16°
2026-05-03 21:03 -16.00487 -48.18652 11139 ft 278 kts 15°
2026-05-03 21:03 -15.98605 -48.18210 10225 ft 274 kts 11°
2026-05-03 21:04 -15.96779 -48.17832 9261 ft 270 kts 15°
2026-05-03 21:04 -15.94957 -48.17380 8285 ft 267 kts 15°
2026-05-03 21:04 -15.93151 -48.16963 7454 ft 263 kts 14°
2026-05-03 21:04 -15.91382 -48.16581 6595 ft 259 kts 14°
2026-05-03 21:05 -15.89648 -48.16202 6100 ft 246 kts 15°
2026-05-03 21:05 -15.88242 -48.15558 6049 ft 206 kts 53°
2026-05-03 21:05 -15.87709 -48.14328 6072 ft 180 kts 85°
2026-05-03 21:05 -15.87625 -48.13087 6076 ft 161 kts 89°
2026-05-03 21:06 -15.87575 -48.11996 6075 ft 141 kts 88°
2026-05-03 21:06 -15.87515 -48.10918 6105 ft 163 kts 88°
2026-05-03 21:06 -15.87440 -48.09694 6105 ft 177 kts 88°
2026-05-03 21:06 -15.87358 -48.08411 6107 ft 178 kts 88°
2026-05-03 21:07 -15.87276 -48.07136 6101 ft 178 kts 87°
2026-05-03 21:07 -15.87195 -48.05861 5814 ft 179 kts 88°
2026-05-03 21:07 -15.87121 -48.04623 5531 ft 165 kts 88°
2026-05-03 21:07 -15.87052 -48.03454 5143 ft 161 kts 88°
2026-05-03 21:08 -15.86994 -48.02339 4948 ft 152 kts 88°
2026-05-03 21:08 -15.86934 -48.01287 4771 ft 139 kts 88°
2026-05-03 21:08 -15.86853 -48.00308 4639 ft 136 kts 88°
2026-05-03 21:08 -15.86773 -47.99340 4662 ft 131 kts 86°
2026-05-03 21:09 -15.86673 -47.98395 4631 ft 135 kts 87°
2026-05-03 21:09 -15.86628 -47.97402 4396 ft 141 kts 91°
2026-05-03 21:09 -15.86610 -47.96374 4230 ft 143 kts 88°
2026-05-03 21:09 -15.86533 -47.95343 3996 ft 146 kts 85°
2026-05-03 21:10 -15.86447 -47.94296 3818 ft 143 kts 90°
2026-05-03 21:10 -15.86401 -47.93268 3639 ft 142 kts 90°
2026-05-03 21:10 -15.86323 -47.92260 3503 ft 135 kts 88°
2026-05-03 21:10 -15.86268 -47.91367 3468 ft 107 kts 86°
2026-05-03 21:11 -15.86235 -47.90871 3472 ft 36 kts 87°
2026-05-03 21:11 -15.86224 -47.90673 3477 ft 22 kts 85°
2026-05-03 21:11 -15.86212 -47.90489 3482 ft 36 kts 86°
2026-05-03 21:11 -15.86199 -47.90300 3480 ft 7 kts 86°
2026-05-03 21:12 -15.86198 -47.90288 3480 ft 1 kts 85°
2026-05-03 21:12 -15.86288 -47.91757 3466 ft 0 kts 88°
2026-05-03 21:13 -15.86698 -47.98655 4667 ft 133 kts 86°
2026-05-03 21:13 -15.86621 -47.97733 4316 ft 129 kts 89°
2026-05-03 21:13 -15.86611 -47.96792 4120 ft 139 kts 92°
2026-05-03 21:13 -15.86563 -47.95749 4035 ft 148 kts 86°
2026-05-03 21:14 -15.86464 -47.94692 3827 ft 146 kts 87°
2026-05-03 21:14 -15.86418 -47.93653 3641 ft 140 kts 88°
2026-05-03 21:14 -15.86347 -47.92687 3508 ft 128 kts 89°
2026-05-03 21:14 -15.86300 -47.91862 3468 ft 88 kts 85°
2026-05-03 21:15 -15.86273 -47.91439 3468 ft 34 kts 86°
2026-05-03 21:15 -15.86264 -47.91318 3468 ft 7 kts 85°
2026-05-03 21:15 -15.86263 -47.91298 3468 ft 0 kts 86°
2026-05-03 21:15 -15.86263 -47.91297 3468 ft 3 kts 86°
2026-05-03 21:16 -15.86253 -47.91136 3472 ft 34 kts 87°
2026-05-03 21:16 -15.86258 -47.90872 3475 ft 36 kts 110°
2026-05-03 21:16 -15.86375 -47.90710 3473 ft 18 kts 139°
2026-05-03 21:16 -15.86486 -47.90702 3472 ft 15 kts 181°
2026-05-03 21:17 -15.86519 -47.90720 3475 ft 2 kts 239°
2026-05-03 21:17 -15.86525 -47.90737 3477 ft 7 kts 252°
2026-05-03 21:17 -15.86537 -47.90879 3474 ft 24 kts 265°
2026-05-03 21:17 -15.86533 -47.91070 3472 ft 25 kts 306°
2026-05-03 21:18 -15.86451 -47.91111 3468 ft 5 kts 298°
2026-05-03 21:18 -15.86449 -47.91155 3471 ft 10 kts 267°
2026-05-03 21:18 -15.86457 -47.91298 3471 ft 29 kts 267°
2026-05-03 21:18 -15.86471 -47.91543 3467 ft 26 kts 268°
2026-05-03 21:19 -15.86500 -47.91638 3466 ft 3 kts 204°
2026-05-03 21:19 -15.86514 -47.91635 3466 ft 6 kts 169°
2026-05-03 21:19 -15.86589 -47.91625 3466 ft 14 kts 175°
2026-05-03 21:19 -15.86669 -47.91641 3465 ft 10 kts 235°
2026-05-03 21:20 -15.86695 -47.91700 3465 ft 7 kts 219°
2026-05-03 21:20 -15.86744 -47.91709 3466 ft 7 kts 171°
2026-05-03 21:20 -15.86799 -47.91702 3466 ft 8 kts 174°
2026-05-03 21:20 -15.86851 -47.91706 3466 ft 4 kts 204°
2026-05-03 21:21 -15.86856 -47.91726 3464 ft 3 kts 285°
2026-05-03 21:21 -15.86839 -47.91746 3466 ft 5 kts 313°
2026-05-03 21:21 -15.86834 -47.91751 3466 ft 0 kts 316°
2026-05-03 21:22 -15.86661 -47.98257 4576 ft 132 kts 88°
2026-05-03 21:22 -15.86624 -47.97794 4337 ft 128 kts 89°
2026-05-03 21:23 -15.86609 -47.97341 4202 ft 130 kts 90°
2026-05-03 21:23 -15.86612 -47.96869 4125 ft 137 kts 94°
2026-05-03 21:23 -15.86599 -47.96327 4090 ft 144 kts 91°
2026-05-03 21:23 -15.86568 -47.95806 4043 ft 148 kts 86°
2026-05-03 21:24 -15.86523 -47.95285 3944 ft 147 kts 86°
2026-05-03 21:24 -15.86450 -47.94486 3801 ft 145 kts 91°
2026-05-03 21:24 -15.86409 -47.93504 3614 ft 138 kts 89°
2026-05-03 21:24 -15.86338 -47.92557 3500 ft 126 kts 88°
2026-05-03 21:25 -15.86296 -47.91816 3468 ft 83 kts 85°
2026-05-03 21:25 -15.86272 -47.91424 3468 ft 32 kts 86°
2026-05-03 21:25 -15.86265 -47.91326 3468 ft 0 kts 85°